Find DiskSat C

NORAD ID: 67219 Int'l Des: 2025-305 Owner: STP Country: US operational
LEOCIRCULAR

当前视图

正在加载3D地球...

About DiskSat C

DiskSat C (NORAD 67219) is a satellite launched Dec 18, 2025 by STP of US. It operates in LEO, CIRCULAR orbit with a mass of 3.00 kg.

即将过境

Passes for default location (London). Set your location on the main map for personalized predictions.

高度历史

Loading altitude history...

两行轨道根数

1 67219U 25305A 26194.37638593 .00005165 00000-0 32547-3 0 9997
2 67219 45.0034 303.8272 0007312 307.4475 52.5736 15.10233624 31280
Epoch: Jul 13, 2026 • Age: 23 hours

当前状态

高度 543.3 km
远地点 / 近地点 N/A
速度 7.59 km/s
星下点 44.55°N, 6.96°W
发射日期 Dec 18, 2025
运行时间 0.5 years
类型 other

技术详情

分类 Payload
质量 3.00 kg
干质量 3.00 kg
总质量 3.00 kg
长度 0.03 m
直径 1.00 m
跨度 1.00 m
形状 Cyl
制造商 AERO
平台类型 DiskSat
阶段状态 In Orbit
所有者/国家 STP/US

Most Searched